Temp
11 11 11 12 12 12 12 12 12 11 11 11 11 11 11 11 11 10 10 10 10 10 9 8 8 8 8 8 8 8 7 7 7 7 7 7 7 7 6 6 7 6 7
11 11 11 12 12 12 12 11 11 11 11 11 11 11 11 11 11 11 10 10 10 10 9 9 9 8 8 8 8 8 7 7 7 7 7 7 7 6 6 6 6 6 6
12 11 11 11 12 12 12 12 12 11 11 11 11 11 11 11 11 11 11 10 10 10 10 10 9 9 8 8 8 8 8 8 8 8 7 7 7 6 6 6 6 6 6
12 12 11 11 11 11 11 11 11 11 11 12 12 11 11 11 11 11 11 11 10 10 10 9 9 9 9 8 8 8 8 8 8 8 7 7 7 6 6 5 6 6 6
12 12 12 11 11 11 10 10 10 10 10 11 12 12 12 12 12 11 11 11 11 11 11 10 10 10 9 9 8 8 8 8 8 8 7 7 6 6 6 6 6 5 6
12 12 12 12 11 11 10 11 10 10 10 10 11 11 11 11 12 12 11 11 12 12 12 11 11 10 10 9 9 8 8 9 9 8 8 7 6 6 6 6 5 5 5
12 12 10 9 11 11 11 10 10 11 11 11 11 11 11 11 11 11 11 11 11 11 11 11 11 10 9 9 9 8 8 9 8 8 7 6 6 6 6 6 5 5 6
12 12 11 9 9 10 11 11 10 10 10 10 11 11 11 11 10 10 10 10 11 11 11 11 10 10 9 9 9 8 8 8 8 8 7 6 6 6 6 6 5 5 5
12 11 11 11 10 10 10 10 10 10 10 10 10 11 11 11 11 10 10 10 10 10 10 10 10 10 10 10 9 9 8 8 8 7 7 7 6 5 5 5 5 5 5
10 10 10 10 10 10 10 9 9 10 9 10 9 10 10 10 11 11 11 11 11 10 10 10 10 9 10 9 10 9 9 8 7 7 7 6 6 6 5 5 5 5 5
10 10 9 9 9 9 9 8 9 9 10 10 10 10 11 11 11 11 11 11 10 10 11 10 9 8 9 10 9 9 8 7 7 6 6 5 5 5 5 5 5 5 4
9 8 8 8 9 8 8 8 9 9 9 9 9 9 10 11 11 11 11 10 10 10 10 9 8 9 8 9 9 9 9 8 7 6 5 5 5 5 4 4 4 4 4
8 8 8 8 8 8 8 9 9 9 9 9 9 9 9 9 9 9 9 9 9 9 9 8 9 9 9 9 9 8 8 6 5 5 5 5 5 4 4 4 4 3 3
9 8 8 8 8 8 8 8 8 8 8 8 8 8 9 9 9 9 8 8 8 8 8 9 9 9 9 9 8 7 6 6 5 5 5 5 5 4 4 4 3 2 2
9 8 8 8 8 8 8 8 8 8 8 8 8 9 9 9 9 8 8 8 8 9 9 9 9 9 9 8 6 6 5 6 5 6 5 5 4 4 4 3 2 1 1
8 8 8 8 8 8 8 8 8 8 6 7 8 8 8 8 9 9 9 9 9 9 9 9 9 8 8 6 5 5 5 6 5 5 4 4 4 4 3 2 1 1 -0
8 7 7 7 8 7 8 8 7 7 6 6 7 7 7 8 8 8 8 9 9 9 8 9 8 8 8 8 6 5 5 5 5 4 4 4 5 4 2 1 1 1 -0
8 8 7 7 6 7 7 7 7 7 7 6 5 6 7 7 7 8 8 8 8 8 8 8 8 8 8 7 6 6 5 5 5 4 4 4 3 3 2 1 1 0 0
7 8 7 7 7 7 7 7 7 7 6 6 6 6 6 6 7 8 8 8 9 8 8 8 8 8 7 7 5 5 5 4 5 4 4 4 3 3 1 1 1 1 0
8 7 7 7 7 7 7 7 7 7 7 6 6 6 7 7 7 8 8 8 8 8 8 8 8 8 7 8 5 5 5 4 4 4 4 4 3 3 1 1 0 -0 0
8 8 7 7 7 7 7 7 7 7 6 7 6 7 7 7 7 7 7 8 8 8 8 7 7 7 6 5 4 4 4 4 4 3 3 2 3 2 1 0 0 1 1
8 7 7 7 7 7 8 8 7 7 7 7 7 7 7 7 7 7 7 8 8 8 7 7 7 6 5 5 4 3 4 4 4 3 3 3 2 1 1 1 2 1 1
7 7 7 7 7 7 8 8 7 8 7 7 7 7 7 7 7 7 7 7 7 8 7 7 6 6 4 4 4 4 3 3 3 2 2 2 2 2 2 2 2 1 1
7 7 7 7 8 7 8 7 8 7 7 7 7 7 7 7 7 7 7 7 7 7 7 7 6 6 4 3 3 4 4 3 3 3 2 2 2 2 2 2 2 1 1
7 7 7 7 7 7 7 7 7 7 7 7 7 6 6 6 6 7 7 7 7 7 7 6 6 5 3 4 3 3 3 3 3 3 3 2 3 3 2 2 1 2 2
7 7 7 6 6 6 6 7 6 6 6 6 6 6 6 6 6 6 6 7 7 7 6 6 6 5 4 4 3 3 2 3 3 3 2 2 2 2 2 1 2 1 1
Height
3217 3218 3217 3218 3219 3220 3221 3223 3224 3224 3224 3224 3225 3226 3227 3227 3227 3227 3227 3227 3227 3228 3227 3226 3224 3222 3222 3220 3217 3212 3208 3206 3205 3206 3206 3207 3207 3207 3207 3206 3205 3205 3202
3217 3217 3216 3216 3216 3218 3219 3220 3221 3222 3223 3223 3224 3224 3224 3225 3225 3225 3224 3224 3224 3225 3222 3223 3221 3217 3218 3216 3214 3210 3205 3203 3203 3202 3202 3203 3204 3204 3204 3203 3203 3201 3199
3215 3216 3215 3215 3215 3216 3217 3217 3218 3219 3220 3220 3220 3221 3221 3222 3222 3222 3222 3222 3219 3219 3218 3219 3215 3207 3209 3212 3209 3208 3204 3202 3201 3200 3199 3200 3201 3201 3201 3200 3200 3198 3196
3210 3212 3213 3213 3214 3215 3215 3215 3214 3215 3215 3216 3216 3217 3217 3217 3217 3217 3217 3216 3214 3212 3211 3211 3209 3208 3204 3203 3205 3204 3202 3200 3199 3198 3198 3198 3199 3199 3198 3197 3196 3194 3193
3205 3207 3210 3211 3210 3210 3211 3211 3212 3211 3212 3212 3212 3213 3214 3214 3214 3213 3211 3209 3208 3207 3205 3204 3200 3201 3202 3200 3201 3200 3198 3197 3196 3196 3195 3196 3196 3197 3195 3194 3193 3192 3189
3197 3199 3203 3206 3207 3206 3205 3205 3204 3203 3205 3205 3205 3206 3206 3206 3208 3207 3204 3204 3203 3203 3202 3200 3197 3199 3199 3196 3196 3195 3194 3192 3192 3193 3192 3192 3192 3192 3191 3190 3189 3187 3186
3189 3187 3187 3188 3194 3199 3198 3197 3198 3197 3198 3200 3199 3199 3199 3199 3200 3201 3199 3198 3197 3197 3198 3195 3194 3193 3194 3192 3191 3190 3189 3188 3189 3189 3189 3189 3188 3188 3188 3187 3186 3184 3183
3176 3180 3179 3179 3185 3185 3187 3187 3186 3179 3180 3186 3190 3191 3192 3191 3192 3193 3191 3189 3188 3192 3192 3189 3188 3186 3182 3185 3185 3184 3183 3183 3183 3183 3184 3184 3185 3184 3184 3184 3182 3181 3178
3174 3175 3174 3173 3174 3175 3178 3179 3180 3179 3180 3181 3180 3181 3182 3184 3184 3185 3183 3182 3182 3182 3181 3179 3179 3179 3177 3173 3176 3176 3176 3178 3178 3178 3179 3179 3180 3180 3181 3180 3178 3177 3176
3167 3168 3168 3168 3169 3171 3170 3172 3172 3172 3172 3172 3172 3173 3174 3174 3174 3174 3173 3172 3171 3171 3172 3170 3170 3170 3168 3165 3169 3168 3169 3172 3174 3174 3174 3174 3175 3176 3175 3175 3174 3174 3172
3164 3163 3163 3163 3163 3164 3165 3166 3166 3166 3165 3165 3164 3165 3166 3165 3164 3162 3162 3161 3161 3161 3163 3163 3161 3161 3159 3159 3162 3162 3164 3166 3168 3169 3171 3171 3172 3172 3172 3171 3171 3170 3169
3159 3160 3161 3161 3161 3161 3160 3160 3159 3158 3158 3157 3156 3156 3155 3153 3152 3150 3150 3151 3151 3152 3153 3153 3152 3150 3155 3157 3157 3156 3158 3160 3163 3164 3167 3168 3168 3170 3169 3168 3167 3166 3166
3160 3159 3159 3158 3158 3156 3155 3153 3151 3149 3148 3148 3148 3147 3147 3145 3143 3142 3141 3143 3144 3145 3147 3147 3149 3150 3153 3153 3151 3152 3154 3157 3159 3161 3162 3163 3164 3164 3165 3165 3164 3163 3161
3158 3157 3156 3154 3153 3152 3149 3147 3145 3144 3143 3143 3142 3141 3140 3140 3139 3138 3137 3136 3137 3140 3142 3143 3145 3147 3146 3144 3145 3149 3151 3153 3154 3154 3157 3158 3158 3160 3161 3160 3160 3159 3157
3156 3155 3153 3151 3149 3145 3142 3140 3138 3137 3137 3137 3136 3136 3136 3135 3136 3135 3135 3136 3137 3138 3139 3140 3139 3139 3140 3140 3141 3142 3146 3149 3150 3151 3152 3154 3154 3153 3154 3154 3154 3156 3156
3155 3153 3150 3147 3144 3141 3139 3136 3134 3132 3130 3132 3133 3134 3136 3135 3135 3135 3136 3136 3135 3135 3135 3135 3134 3134 3134 3136 3138 3139 3142 3143 3145 3144 3146 3148 3147 3148 3149 3151 3151 3151 3151
3153 3151 3148 3145 3141 3140 3137 3133 3129 3130 3132 3131 3132 3131 3133 3133 3132 3133 3134 3133 3133 3133 3132 3131 3131 3131 3131 3132 3134 3135 3138 3138 3138 3139 3138 3140 3142 3144 3146 3147 3147 3148 3147
3150 3149 3147 3143 3140 3139 3136 3134 3133 3133 3132 3132 3131 3133 3134 3133 3133 3133 3133 3132 3130 3130 3129 3128 3127 3127 3127 3128 3128 3129 3132 3133 3134 3135 3135 3135 3138 3141 3141 3141 3141 3141 3143
3147 3147 3146 3143 3141 3138 3137 3134 3133 3132 3131 3130 3132 3133 3132 3131 3130 3130 3130 3129 3128 3128 3127 3126 3125 3124 3124 3122 3123 3125 3126 3128 3129 3131 3131 3134 3136 3138 3138 3137 3137 3139 3140
3143 3144 3143 3142 3140 3138 3136 3134 3132 3131 3129 3126 3126 3129 3129 3130 3130 3131 3130 3129 3127 3125 3123 3122 3121 3121 3120 3118 3119 3121 3123 3123 3126 3128 3128 3132 3132 3132 3133 3135 3135 3136 3136
3143 3142 3141 3140 3138 3137 3134 3131 3130 3128 3128 3127 3128 3129 3130 3131 3129 3129 3128 3127 3125 3123 3122 3120 3118 3117 3116 3116 3117 3119 3121 3122 3123 3124 3125 3128 3128 3128 3130 3130 3132 3133 3133
3141 3140 3139 3137 3136 3135 3130 3126 3126 3127 3127 3127 3126 3128 3129 3129 3129 3129 3128 3126 3123 3121 3118 3116 3114 3113 3113 3114 3115 3117 3116 3118 3120 3120 3122 3124 3124 3126 3128 3128 3130 3130 3130
3140 3139 3137 3136 3134 3133 3130 3126 3125 3126 3127 3127 3128 3128 3128 3127 3127 3127 3126 3123 3120 3118 3116 3114 3112 3111 3111 3113 3113 3114 3115 3116 3118 3118 3119 3120 3121 3123 3125 3127 3128 3128 3128
3137 3136 3134 3133 3132 3132 3131 3129 3128 3128 3128 3128 3128 3127 3127 3126 3125 3124 3122 3120 3119 3117 3115 3114 3113 3111 3111 3112 3112 3111 3113 3114 3114 3114 3115 3117 3119 3122 3123 3125 3126 3127 3126
3134 3132 3131 3130 3130 3130 3129 3129 3128 3128 3128 3127 3128 3127 3126 3125 3124 3122 3120 3119 3118 3116 3114 3111 3110 3109 3109 3109 3109 3109 3109 3111 3112 3114 3115 3117 3119 3120 3121 3123 3124 3125 3124
3130 3130 3128 3128 3127 3127 3127 3127 3125 3125 3125 3125 3124 3123 3123 3122 3121 3119 3118 3116 3114 3112 3110 3108 3107 3105 3105 3105 3105 3106 3108 3109 3111 3113 3114 3117 3118 3119 3120 3122 3123 3124 3124
Wind_Speed
14 10 10 9 11 13 11 9 7 5 6 8 11 12 12 10 10 9 9 10 11 11 14 15 17 17 19 23 25 25 22 22 19 15 14 14 13 14 16 15 17 18 20
8 11 6 8 11 13 13 13 12 10 10 9 11 13 13 13 13 12 13 14 14 14 18 19 22 25 23 24 21 24 21 15 14 14 11 11 13 15 15 14 16 18 20
9 8 5 4 6 8 10 13 15 15 15 15 14 15 15 15 15 15 16 19 20 19 20 19 21 20 17 15 16 23 19 13 13 12 11 12 14 15 16 15 17 17 17
14 11 12 9 8 7 8 9 11 12 15 16 17 19 19 19 19 19 20 21 23 24 22 19 23 24 33 15 17 23 20 15 12 11 10 12 13 14 13 15 15 15 17
21 21 19 19 16 15 16 17 19 19 18 18 20 20 20 22 22 21 22 23 24 26 24 22 24 27 30 21 21 26 20 16 17 13 10 11 12 13 15 14 15 17 17
31 28 29 27 25 25 26 25 25 24 26 26 25 24 23 23 22 23 25 27 29 28 28 27 24 31 29 19 25 26 22 16 16 16 11 12 13 13 14 14 16 17 16
37 39 36 39 28 28 36 37 36 31 29 29 29 30 29 29 28 28 29 32 33 33 32 31 31 29 36 19 20 25 20 17 18 16 13 12 13 13 14 14 17 18 18
16 34 44 30 31 35 35 36 40 37 29 30 30 33 34 33 33 33 33 34 36 33 33 34 32 31 24 23 24 27 22 18 18 18 15 14 13 15 15 15 15 17 18
19 20 17 25 28 31 38 34 35 27 27 30 30 30 33 34 35 33 32 31 31 32 32 36 37 37 49 50 30 26 23 19 17 18 17 15 15 15 15 15 15 17 18
11 12 14 18 20 26 31 31 32 30 27 28 29 25 27 31 34 33 34 34 33 33 35 40 40 40 37 22 24 24 20 20 18 19 20 18 15 14 14 14 15 16 17
15 16 18 19 20 18 19 19 21 23 22 23 24 26 31 32 38 37 34 35 36 38 35 31 28 32 25 23 22 20 16 21 21 21 20 14 12 15 14 14 14 15 16
10 12 14 17 19 20 21 25 26 26 27 27 28 28 30 32 34 37 39 32 29 29 30 20 21 20 20 19 17 16 18 21 22 20 19 15 13 15 14 13 14 15 15
8 11 14 17 18 19 21 23 26 28 27 25 23 22 21 14 12 14 18 22 22 17 16 15 16 15 16 14 14 16 19 19 22 17 20 14 16 17 13 12 13 15 16
10 12 13 12 10 12 14 15 14 14 19 19 20 18 17 16 14 12 11 10 10 13 15 17 18 17 15 14 14 16 18 19 18 20 19 14 18 13 12 16 16 14 14
9 10 11 12 12 14 15 15 13 11 13 17 17 13 10 9 9 9 9 9 9 11 11 13 14 14 15 15 13 17 16 18 16 19 18 16 20 14 17 21 17 14 15
11 12 13 14 15 14 12 11 18 15 5 7 7 4 3 5 6 7 8 9 9 9 10 11 13 15 15 16 16 18 16 21 20 16 20 21 20 19 19 17 15 14 17
10 12 15 18 21 17 17 18 9 8 7 9 11 1 3 4 5 4 4 5 7 8 9 11 12 13 14 17 17 16 20 20 18 25 20 28 16 18 16 15 17 17 16
10 9 12 17 14 12 14 10 8 9 10 9 4 7 9 5 1 2 5 7 7 9 10 11 11 12 12 13 12 14 18 20 20 23 23 18 22 18 18 20 15 13 21
14 9 7 6 6 9 10 9 10 5 12 13 15 11 9 3 3 8 12 12 12 13 13 13 13 12 12 12 13 19 21 21 20 17 16 14 16 17 20 17 12 14 20
2 5 6 8 11 11 9 8 6 6 7 5 19 11 10 6 5 8 12 14 14 14 12 11 11 12 12 11 10 10 14 14 11 8 9 8 13 18 18 13 14 17 18
4 6 9 11 14 15 15 11 11 4 4 1 15 12 8 7 9 11 14 14 13 10 10 10 11 10 8 9 8 10 8 8 13 8 14 13 17 13 16 12 14 13 12
8 10 12 11 9 9 15 15 11 6 4 1 6 13 10 11 10 10 11 11 11 10 11 11 9 6 7 6 10 12 13 9 9 9 13 18 13 11 16 11 10 9 8
9 10 7 7 12 9 8 8 3 5 4 2 0 4 7 8 8 8 8 9 12 12 12 11 11 8 7 4 7 12 15 14 15 15 12 14 16 11 11 9 7 5 6
8 9 9 9 10 5 4 6 3 2 5 2 5 3 3 4 7 8 9 11 13 14 13 10 9 6 8 10 15 17 10 13 16 11 13 14 11 13 10 6 3 4 3
8 8 10 9 8 9 5 2 5 4 7 8 7 6 6 7 9 9 10 13 13 14 14 13 11 9 11 13 12 11 11 12 10 11 11 9 10 10 7 5 3 2 1
6 7 8 9 11 11 11 10 9 9 11 11 11 11 11 11 13 13 14 15 16 16 15 14 12 13 10 10 9 10 11 11 10 9 9 8 7 7 7 6 4 3 2
Wind_Direction
257 278 260 238 232 228 222 223 218 222 216 204 202 207 219 218 229 243 254 265 276 286 285 288 292 283 278 292 313 326 309 293 300 290 297 285 272 263 261 259 265 272 286
267 262 250 237 231 234 232 234 235 233 228 224 223 220 225 236 248 258 265 271 275 279 280 288 290 303 277 282 299 332 321 294 284 282 282 277 268 254 242 260 265 279 283
233 234 233 234 234 226 229 234 239 242 244 238 234 238 241 245 246 252 264 274 279 281 289 297 296 325 262 287 314 326 320 284 282 291 288 279 269 261 250 265 278 279 282
226 234 234 215 206 214 221 230 232 240 246 248 242 237 239 241 245 254 264 272 280 283 286 294 290 298 308 297 315 326 319 279 270 289 283 279 269 263 268 275 274 281 290
240 242 244 246 238 238 239 243 250 250 250 252 253 252 251 255 258 260 262 264 267 273 279 280 293 296 314 303 290 310 309 277 255 272 262 265 265 267 268 275 290 292 288
244 240 243 247 251 251 250 250 247 247 248 245 247 252 253 254 255 256 261 267 270 275 281 285 286 295 295 282 285 297 296 277 258 262 246 239 247 254 263 274 282 285 286
255 250 254 251 232 262 261 257 255 250 250 252 250 254 254 259 259 262 266 269 273 276 280 284 286 299 275 281 277 286 285 269 267 262 252 243 248 258 268 277 283 289 293
228 239 258 264 249 267 277 259 254 258 247 249 250 253 256 258 259 261 265 268 273 276 281 294 293 292 291 288 286 281 276 256 262 258 254 248 248 253 263 274 283 289 288
252 258 256 256 259 259 264 264 254 262 259 245 257 256 259 262 263 267 270 273 277 281 280 279 280 283 287 291 279 268 263 247 256 252 256 253 254 255 268 277 288 294 298
243 248 258 264 261 259 262 256 264 264 275 266 257 260 263 264 266 267 270 271 271 269 273 278 281 280 283 260 260 262 247 238 248 246 248 252 260 261 271 284 292 290 287
260 260 261 263 270 269 249 253 267 264 264 269 271 271 271 271 270 268 267 267 266 270 270 279 290 272 282 258 259 245 233 233 243 247 248 250 266 268 272 278 281 281 285
263 265 269 270 271 274 270 270 274 274 271 271 270 271 274 273 267 262 262 258 263 268 281 281 292 273 252 254 245 238 237 238 248 248 244 251 258 269 266 272 281 281 283
282 278 283 290 285 280 281 281 278 276 279 281 276 269 270 278 272 269 271 268 267 267 269 272 276 261 258 263 253 239 237 241 252 253 239 239 253 255 266 273 289 304 297
297 291 291 292 273 266 270 273 281 277 271 271 256 276 284 281 288 295 300 300 295 274 271 272 261 262 266 265 257 251 241 242 250 235 239 253 257 248 257 260 267 284 299
337 319 312 306 300 300 292 260 261 270 284 276 255 274 285 282 284 298 293 286 261 259 267 273 277 283 282 276 266 255 245 252 271 248 238 244 250 233 251 258 274 289 298
345 343 337 335 321 315 307 292 304 286 263 243 221 218 277 293 292 288 280 279 280 280 280 279 278 276 274 266 258 264 245 255 253 244 234 243 235 245 260 274 275 284 294
319 337 337 329 309 316 334 344 331 283 277 243 241 279 339 318 300 298 295 293 295 291 286 282 277 274 267 266 254 244 245 249 246 242 239 248 251 242 253 264 281 276 284
294 320 339 24 36 12 345 347 344 333 303 296 248 225 251 236 221 319 336 332 323 314 307 298 288 281 280 273 251 247 241 245 255 250 251 265 278 251 253 267 279 274 266
293 296 327 334 5 338 326 338 359 13 331 264 243 224 177 198 313 338 338 329 319 313 306 299 290 282 276 271 262 256 250 250 252 259 275 256 247 248 255 262 259 264 280
302 278 303 309 316 322 319 340 334 355 358 337 180 193 200 211 274 299 320 321 321 317 309 303 289 277 272 258 252 254 241 251 249 248 248 254 262 260 258 248 268 281 287
336 330 318 310 316 328 318 290 326 273 275 286 187 210 253 256 291 302 317 319 323 316 311 306 300 282 264 244 229 201 223 236 226 246 249 278 266 243 244 266 266 273 277
314 318 316 315 337 329 331 306 296 241 233 36 245 232 229 235 263 293 309 325 328 330 331 324 319 284 226 213 206 220 220 246 243 260 278 282 251 266 258 247 249 261 278
305 310 312 307 321 348 351 11 57 163 161 84 4 202 225 243 252 274 318 339 346 347 342 336 329 288 232 209 227 226 240 239 266 274 244 251 239 257 225 226 225 260 283
276 285 288 299 316 341 9 28 7 215 198 279 308 296 276 266 287 304 325 332 338 340 334 319 316 288 221 233 234 273 253 243 285 254 239 234 216 214 211 196 224 264 293
278 285 280 283 279 303 354 313 332 271 261 282 251 268 289 295 303 303 314 319 319 322 327 318 311 296 261 272 245 244 283 266 228 192 192 191 201 205 188 183 227 232 298
282 271 267 270 278 287 285 294 301 270 274 271 269 283 283 285 294 302 305 312 317 317 314 310 297 297 286 282 260 251 232 212 185 181 193 203 207 201 181 194 209 197 237